Вернуться в каталог

COSMOS 2251 DEB

АктивенLEO
NORAD 34413·DEBRIS·🇷🇺 Russia

Запущен Jun 16, 1993 с Plesetsk Cosmodrome

Loading…

Ближайшие Пролёты (ближайшие 24 часа)

TLE

СвежийSource: Space-Track

Эпоха: Sep 14, 2026, 08:11 UTC

1 34413U 93036RE  26257.34111204  .00001722  00000-0  63992-3 0  9998
2 34413  74.0287 123.6011 0090990 135.7751 341.4684 14.30567501910704

Отслеживайте COSMOS 2251 DEB в реальном времени с AllMySat

Download on the App Store